Location: La Comballaz
(46.3780°N, 7.0817°E)
Time: 04:08:09
(UTC+00:00)

Envisat - Pass Details

Date: 16 December 2021
Orbit: 764 x 766 km, 98.2° (Epoch: 16 January)

Event Time Altitude Azimuth Distance (km) Brightness Sun altitude
Rises 03:06:00 0° 31° (NNE) 3,241 6.7 -40.7°
Reaches altitude 10° 03:09:33 10° 57° (ENE) 2,308 6.0 -40.1°
Maximum altitude 03:12:05 14° 87° (E) 2,055 5.8 -39.7°
Drops below altitude 10° 03:14:36 10° 118° (ESE) 2,299 6.0 -39.3°
Sets 03:18:07 0° 143° (SE) 3,218 6.6 -38.7°
